ロヴァシュ第2彗星

184P/Lovas 2 (2020)

English version
Home page
Updated on August 28, 2020

---------------------------------------------------------------------

・ プロフィール

・ 写真集

・ 軌道要素

Epoch 2020 Nov. 7.0 TT = JDT 2459160.5
T 2020 Oct. 26.18668 TT                                 Rudenko
q   1.7032630            (2000.0)            P               Q
n   0.13342799     Peri.  186.43671     +0.99994358     +0.00501362
a   3.7929003      Node   173.25473     -0.00171043     +0.94610295
e   0.5509339      Incl.    4.57334     -0.01048427     +0.32382722
P   7.39
From 269 observations 1986 Dec. 2-2020 Aug. 22, mean residual 0".6.

・ 光度変化

        m1 = 16.0 + 5 logΔ + 10.0 log r(t - 100)

---------------------------------------------------------------------

軌道要素はM.P.E.C. 2020-Q175に掲載されたものです。
光度グラフはComet for Windowsで作成したものです。

---------------------------------------------------------------------

Copyright(C) Seiichi Yoshida (comet@aerith.net). All rights reserved.